CAPE
1 1 0 0 0 0 0 0 0 0 0 0 0 1 0 0 0 1 0 0 9 35 0 0 46 7 3 6 3 37 27 4 0 0 0 0 0 0 0 0 0 0 0 0 0
0 0 0 0 0 0 0 0 0 0 0 0 0 0 0 0 0 0 2 15 29 17 0 0 1 29 15 11 5 24 12 5 4 0 0 0 0 0 0 0 0 0 0 0 9
0 0 0 0 0 0 0 0 0 0 0 0 0 0 0 0 0 0 0 0 2 0 0 0 0 3 18 28 9 19 9 19 38 33 8 0 0 0 0 0 0 0 0 0 0
0 0 0 0 0 0 0 0 0 0 0 0 0 13 6 0 0 0 0 0 21 0 0 0 0 0 5 11 11 12 0 31 23 24 10 0 0 0 0 0 0 0 0 0 0
0 0 0 0 0 0 0 0 0 0 0 0 4 4 0 0 0 0 0 0 0 0 0 0 0 0 1 6 9 8 0 0 23 26 15 4 0 0 0 0 0 0 0 0 0
0 0 0 0 0 0 0 0 0 0 0 0 0 0 0 0 0 0 0 0 0 0 0 0 0 0 0 2 1 2 17 1 2 1 15 0 0 0 0 0 0 0 0 0 0
0 0 0 0 0 0 0 0 0 0 0 0 0 0 0 0 0 0 0 0 0 0 0 0 0 0 12 0 2 2 1 1 0 1 1 24 0 0 0 0 0 0 0 0 0
0 0 0 0 0 0 0 0 0 0 0 0 0 0 0 0 0 0 0 0 0 0 0 0 0 0 0 0 4 1 0 0 0 0 3 2 0 0 0 0 0 0 0 0 0
0 0 0 0 0 0 0 0 0 0 0 0 0 0 0 0 0 0 0 0 0 0 0 0 0 0 8 2 2 4 0 0 0 0 0 6 1 2 8 0 0 0 0 0 0
0 0 0 0 0 0 0 0 0 0 0 0 0 0 0 0 0 0 0 0 0 0 2 18 1 0 2 6 0 1 0 3 2 7 2 8 4 2 6 10 3 0 0 0 0
0 0 0 0 0 0 0 0 0 0 0 0 0 0 0 0 0 0 0 0 0 1 1 5 13 0 4 1 0 5 0 0 0 2 8 1 9 1 5 1 10 0 0 0 0
0 0 0 0 0 0 0 0 0 0 0 0 0 0 0 0 0 0 0 0 0 1 0 1 0 2 2 3 5 1 0 0 0 0 1 14 5 11 0 7 3 0 0 0 0
0 0 0 0 0 0 0 0 0 0 0 0 0 0 0 0 0 0 0 0 0 0 0 3 3 3 2 2 0 0 1 0 0 1 0 0 4 4 0 30 17 0 0 0 0
0 0 0 0 0 0 0 0 0 0 0 0 0 0 0 0 0 0 0 0 0 0 0 0 0 1 0 0 1 0 1 0 1 0 0 0 3 2 0 6 19 4 0 0 0
0 0 0 0 0 0 0 0 0 0 0 0 0 0 0 0 0 0 0 0 0 0 0 0 1 2 0 1 1 0 0 8 2 0 0 0 0 3 1 1 0 0 0 0 0
0 0 0 0 0 0 0 0 0 0 0 0 0 0 0 0 0 0 0 0 0 0 0 0 0 0 0 0 0 0 0 14 18 5 0 0 0 0 3 0 0 1 2 0 0
0 0 0 0 0 0 0 0 0 0 0 0 0 0 0 0 0 0 0 0 0 0 0 0 0 0 0 0 0 0 0 4 2 4 0 0 0 0 1 1 2 2 0 0 0
0 0 0 0 0 0 0 0 0 0 0 0 0 0 0 0 0 0 0 0 0 0 0 0 0 0 0 1 1 0 1 2 14 0 9 3 0 0 1 2 1 3 0 1 0
0 0 0 0 0 0 0 0 0 0 0 0 0 0 0 0 0 0 0 0 0 0 0 0 0 0 0 0 0 0 0 0 0 0 0 0 0 1 0 0 1 2 0 0 0
0 0 0 0 0 0 0 0 0 0 0 0 0 0 0 0 0 0 0 0 0 0 2 1 0 0 0 0 0 1 0 0 0 0 0 0 0 0 0 0 0 0 1 0 1
0 0 0 0 0 0 0 0 0 0 0 0 0 0 0 0 0 0 0 0 0 0 0 1 0 0 0 0 0 0 0 0 0 0 0 0 0 2 1 2 2 1 1 1 2
0 0 0 0 0 0 0 0 0 0 0 0 0 0 0 0 0 0 0 0 0 0 0 0 0 0 0 0 0 0 1 1 2 0 1 0 1 1 0 0 1 1 2 0 2
0 0 0 0 0 0 0 0 0 0 0 0 0 0 0 0 0 0 0 0 0 0 0 0 0 0 0 0 0 0 0 0 0 0 2 0 1 0 0 0 1 1 3 0 0
0 0 0 0 0 0 0 0 0 0 0 0 0 0 0 0 0 0 0 0 0 0 0 0 0 0 0 0 1 0 0 0 0 0 0 0 0 0 0 1 1 1 2 1 0
0 0 0 0 0 0 0 0 0 0 0 0 0 0 0 0 0 0 0 0 0 0 0 0 0 0 0 0 0 0 0 0 0 0 0 0 0 1 0 1 1 1 2 2 2
0 0 0 0 0 0 0 0 0 0 0 0 0 0 0 0 0 0 0 0 0 0 0 0 0 0 0 0 0 0 0 0 0 0 0 0 0 0 1 1 1 2 2 1 2
0 0 0 0 0 0 0 0 0 0 0 0 0 0 0 0 0 0 0 0 0 0 0 0 0 0 0 0 0 0 0 0 0 0 0 0 0 1 0 1 1 2 1 1 1
CIN
-0 -0 -0 -0 -0 -0 -0 -0 -0 -0 -0 -0 -0 -0 -0 -0 -0 -1 -0 -0 -0 -1 -0 -0 -0 -20 -19 -0 -0 -2 -0 -0 -0 -0 -0 -0 -0 -0 -0 -0 -0 -0 -0 -0 -0
-0 -0 -0 -0 -0 -0 -0 -0 -0 -0 -0 -0 -0 -0 -0 -0 -0 -0 -0 -2 -1 -1 -0 -0 -3 -0 -0 -1 -1 -7 -2 -0 -1 -0 -0 -0 -0 -0 -0 -0 -0 -0 -0 -0 -113
-0 -0 -0 -0 -0 -0 -0 -0 -0 -0 -0 -0 -0 -0 -0 -0 -0 -0 -0 -0 -1 -0 -0 -0 -0 -7 -0 -0 -1 -0 -0 -1 -0 -2 -2 -0 -0 -0 -0 -0 -0 -0 -0 -0 -0
-0 -0 -0 -0 -0 -0 -0 -0 -0 -0 -0 -0 -0 -9 -15 -0 -0 -0 -0 -0 -13 -0 -0 -0 -0 -0 -0 -5 -8 -0 -0 -1 -1 -3 -7 -0 -0 -0 -0 -0 -0 -0 -0 -0 -0
-0 -0 -0 -0 -0 -0 -0 -0 -0 -0 -0 -0 -1 -1 -0 -0 -0 -0 -0 -0 -0 -0 -0 -0 -0 -0 -0 -4 -6 -12 -0 -0 -11 -14 -14 -20 -0 -0 -0 -0 -0 -0 -0 -0 -0
-0 -0 -0 -0 -0 -0 -0 -0 -0 -0 -0 -0 -0 -0 -0 -0 -0 -0 -0 -0 -0 -0 -0 -0 -0 -0 -0 -0 -0 -0 -2 -5 -0 -5 -0 -10 -0 -0 -0 -0 -0 -0 -0 -0 -0
-0 -0 -0 -0 -0 -0 -0 -0 -0 -0 -0 -0 -0 -0 -0 -0 -0 -0 -0 -0 -0 -0 -0 -0 -0 -0 -0 -0 -0 -0 -0 -0 -0 -0 -0 -2 -0 -0 -0 -0 -0 -0 -0 -0 -0
-0 -0 -0 -0 -0 -0 -0 -0 -0 -0 -0 -0 -0 -0 -0 -0 -0 -0 -0 -0 -0 -0 -0 -0 -0 -0 -0 -0 -1 -0 -0 -0 -0 -0 -0 -0 -0 -0 -0 -0 -0 -0 -0 -0 -0
-0 -0 -0 -0 -0 -0 -0 -0 -0 -0 -0 -0 -0 -0 -0 -0 -0 -0 -0 -0 -0 -0 -0 -0 -0 -0 -1 -0 -0 -0 -0 -0 -0 -0 -1 -0 -0 -0 -1 -0 -0 -0 -0 -0 -0
-0 -0 -0 -0 -0 -0 -0 -0 -0 -0 -0 -0 -0 -0 -0 -0 -0 -0 -0 -0 -0 -0 -7 -9 -6 -0 -2 -1 -0 -0 -0 -1 -2 -0 -1 -0 -0 -1 -1 -1 -2 -0 -0 -0 -0
-0 -0 -0 -0 -0 -0 -0 -0 -0 -0 -0 -0 -0 -0 -0 -0 -0 -0 -0 -0 -0 -1 -1 -0 -7 -0 -4 -1 -1 -0 -0 -0 -0 -11 -2 -1 -1 -1 -2 -10 -1 -0 -0 -0 -0
-0 -0 -0 -0 -0 -0 -0 -0 -0 -0 -0 -0 -0 -0 -0 -0 -0 -0 -0 -0 -0 -1 -1 -0 -0 -0 -0 -1 -0 -1 -0 -0 -0 -0 -2 -3 -1 -3 -0 -3 -3 -0 -0 -0 -0
-0 -0 -0 -0 -0 -0 -0 -0 -0 -0 -0 -0 -0 -0 -0 -0 -0 -0 -0 -0 -0 -0 -1 -1 -1 -0 -0 -0 -0 -0 -1 -0 -1 -0 -0 -0 -0 -1 -0 -1 -1 -0 -0 -0 -0
-0 -0 -0 -0 -0 -0 -0 -0 -0 -0 -0 -0 -0 -0 -0 -0 -0 -0 -0 -0 -0 -0 -0 -0 -0 -0 -0 -0 -0 -0 -8 -0 -0 -0 -0 -0 -1 -2 -0 -1 -2 -27 -0 -0 -0
-0 -0 -0 -0 -0 -0 -0 -0 -0 -0 -0 -0 -0 -0 -0 -0 -0 -0 -0 -0 -0 -0 -0 -0 -0 -0 -0 -0 -0 -0 -0 -0 -0 -2 -0 -0 -0 -6 -21 -1 -0 -0 -0 -0 -0
-0 -0 -0 -0 -0 -0 -0 -0 -0 -0 -0 -0 -0 -0 -0 -0 -0 -0 -0 -0 -0 -0 -0 -0 -0 -0 -0 -0 -0 -0 -0 -4 -4 -7 -0 -0 -0 -0 -8 -0 -0 -3 -4 -0 -0
-0 -0 -0 -0 -0 -0 -0 -0 -0 -0 -0 -0 -0 -0 -0 -0 -0 -0 -0 -0 -0 -0 -0 -0 -0 -0 -0 -0 -0 -0 -0 -2 -1 -1 -0 -0 -0 -0 -0 -0 -0 -0 -0 -0 -0
-0 -0 -0 -0 -0 -0 -0 -0 -0 -0 -0 -0 -0 -0 -0 -0 -0 -0 -0 -0 -0 -0 -0 -0 -0 -0 -0 -0 -0 -0 -0 -1 -2 -0 -2 -5 -0 -0 -0 -0 -0 -0 -0 -0 -0
-0 -0 -0 -0 -0 -0 -0 -0 -0 -0 -0 -0 -0 -0 -0 -0 -0 -0 -0 -0 -0 -1 -0 -0 -0 -0 -0 -0 -0 -0 -0 -0 -0 -0 -2 -0 -0 -0 -0 -0 -0 -0 -0 -0 -0
-0 -0 -0 -0 -0 -0 -0 -0 -0 -0 -0 -0 -0 -0 -0 -0 -0 -0 -0 -0 -0 -0 -0 -0 -0 -0 -0 -0 -0 -0 -0 -0 -0 -0 -0 -0 -0 -0 -0 -0 -0 -0 -0 -0 -0
-0 -0 -0 -0 -0 -0 -0 -0 -0 -0 -0 -0 -0 -0 -0 -0 -0 -0 -0 -0 -0 -0 -0 -1 -0 -0 -0 -0 -0 -0 -0 -0 -0 -0 -0 -0 -0 -0 -0 -0 -0 -0 -0 -0 -0
-0 -0 -0 -0 -0 -0 -0 -0 -0 -0 -0 -0 -0 -0 -0 -0 -0 -0 -0 -0 -0 -0 -0 -0 -0 -0 -0 -0 -0 -0 -0 -0 -0 -0 -0 -0 -0 -0 -0 -0 -0 -0 -0 -0 -0
-0 -0 -0 -0 -0 -0 -0 -0 -0 -0 -0 -0 -0 -0 -0 -0 -0 -0 -0 -0 -0 -0 -0 -0 -0 -0 -0 -0 -0 -0 -0 -0 -0 -0 -0 -0 -0 -0 -0 -0 -0 -0 -0 -0 -0
-0 -0 -0 -0 -0 -0 -0 -0 -0 -0 -0 -0 -0 -0 -0 -0 -0 -0 -0 -0 -0 -0 -0 -0 -0 -0 -0 -0 -0 -0 -0 -0 -0 -0 -0 -0 -0 -0 -0 -0 -0 -0 -0 -0 -0
-0 -0 -0 -0 -0 -0 -0 -0 -0 -0 -0 -0 -0 -0 -0 -0 -0 -0 -0 -0 -0 -0 -0 -0 -0 -0 -0 -0 -0 -0 -0 -0 -0 -0 -0 -0 -0 -0 -0 -0 -0 -0 -0 -0 -0
-0 -0 -0 -0 -0 -0 -0 -0 -0 -0 -0 -0 -0 -0 -0 -0 -0 -0 -0 -0 -0 -0 -0 -0 -0 -0 -0 -0 -0 -0 -0 -0 -0 -0 -0 -0 -0 -0 -0 -0 -0 -0 -0 -0 -0
-0 -0 -0 -0 -0 -0 -0 -0 -0 -0 -0 -0 -0 -0 -0 -0 -0 -0 -0 -0 -0 -0 -0 -0 -0 -0 -0 -0 -0 -0 -0 -0 -0 -0 -0 -0 -0 -0 -0 -0 -0 -0 -0 -0 -0
Wind_Speed
30 30 32 33 34 35 36 36 36 35 33 33 33 32 31 30 29 29 28 25 26 31 31 32 29 29 34 35 34 36 49 58 56 51 47 36 39 35 35 38 33 30 31 24 20
33 34 35 35 36 36 36 37 36 35 34 32 31 31 30 27 26 31 31 32 31 32 32 32 36 33 36 41 39 43 51 55 45 47 45 39 39 37 38 39 37 32 27 24 18
36 37 37 36 36 37 37 37 37 35 35 33 31 30 30 28 28 33 38 36 34 32 32 33 33 38 45 42 49 46 61 47 48 46 45 43 42 40 43 45 41 36 31 25 21
36 37 37 36 36 35 36 37 35 35 37 36 33 32 30 34 38 34 37 35 31 31 32 32 32 40 45 48 51 60 56 59 45 40 43 48 42 44 47 43 38 36 33 29 27
36 37 36 34 34 34 35 35 33 36 37 37 36 33 29 35 37 37 34 35 31 33 33 34 36 36 46 46 48 57 58 50 52 48 42 44 50 51 53 45 33 35 32 32 31
39 37 36 34 34 33 33 33 30 32 37 38 37 31 28 34 35 38 33 38 38 37 36 35 33 33 42 43 49 45 54 60 52 50 47 48 51 49 47 42 45 35 36 34 32
40 39 36 33 34 31 30 32 33 32 33 45 38 28 29 33 40 39 32 38 40 41 41 38 33 34 30 40 34 44 60 54 59 54 51 42 53 62 41 39 44 42 35 34 38
41 39 36 34 35 31 27 28 34 32 32 45 39 28 34 35 33 36 35 47 43 40 30 33 29 32 36 34 39 42 51 61 48 59 48 47 60 54 43 39 40 44 42 37 36
43 41 37 34 34 31 23 20 24 36 29 34 51 31 39 33 38 33 40 40 41 28 28 21 15 27 28 37 42 38 52 60 59 48 54 51 48 44 44 43 44 42 43 40 38
42 42 37 34 34 33 27 22 23 24 35 30 46 34 41 40 30 28 18 11 27 28 18 16 20 28 29 35 46 42 44 48 62 49 52 61 50 36 42 45 46 43 41 43 41
38 38 37 31 35 35 28 28 27 25 38 47 42 43 38 32 27 42 32 22 23 26 22 17 18 25 27 32 39 42 41 43 40 50 55 57 60 46 49 39 46 48 47 42 43
38 39 37 29 35 35 31 33 29 23 32 39 39 38 40 31 32 47 30 31 30 33 26 16 16 23 27 31 34 41 45 44 40 35 44 53 56 54 50 47 45 44 46 44 40
40 41 38 31 29 33 35 33 24 21 30 41 39 40 42 31 32 29 28 22 27 32 28 23 21 24 26 29 33 37 43 47 41 28 32 42 57 53 56 50 46 48 46 46 44
37 42 37 33 30 32 30 28 24 20 36 49 45 39 39 34 33 28 19 25 25 22 22 26 25 23 23 22 24 34 34 40 41 37 41 33 54 58 53 54 49 42 43 45 46
33 39 35 40 32 34 26 24 25 23 56 41 39 29 36 41 27 33 30 20 25 18 21 23 25 22 20 18 22 26 28 33 33 35 35 36 42 45 47 53 57 53 44 43 44
30 34 35 34 34 32 24 21 29 42 52 42 36 41 45 42 34 27 33 41 23 21 20 18 7 14 20 19 16 23 26 30 28 29 40 34 33 34 36 46 44 46 45 42 41
26 31 35 33 37 27 26 25 41 58 35 43 43 42 41 43 40 35 35 40 41 27 24 14 21 4 19 11 14 18 19 27 40 40 40 25 33 29 27 31 38 44 46 41 39
24 29 32 37 31 29 29 39 56 40 40 34 37 40 46 45 39 37 33 39 37 29 19 22 19 22 17 10 15 13 11 18 33 40 38 28 32 26 20 24 31 38 41 44 44
22 27 33 32 33 33 34 52 46 39 35 37 39 46 47 43 39 40 38 39 32 27 29 22 20 5 16 11 14 14 12 13 17 20 28 28 21 20 20 22 25 30 36 38 39
24 25 34 29 32 33 44 46 38 33 32 34 45 41 46 44 44 43 43 34 32 27 22 19 20 10 4 9 14 11 15 14 17 21 24 25 26 29 26 25 24 26 30 36 35
25 25 31 26 27 40 47 41 36 31 32 36 38 39 39 41 40 40 39 30 31 27 22 21 22 18 13 19 15 12 12 15 16 16 22 24 22 21 24 24 24 23 25 31 32
24 28 26 26 39 36 41 35 31 33 31 31 32 33 36 36 37 38 38 32 31 26 26 22 22 21 23 9 15 17 11 13 17 18 16 19 20 20 21 22 21 22 22 25 29
25 25 24 29 38 38 33 34 30 32 32 33 35 33 31 33 38 35 33 27 29 33 27 21 25 25 23 18 15 13 17 12 13 15 16 23 24 22 21 20 21 22 21 20 22
25 29 28 32 31 34 33 35 35 28 29 30 30 30 33 32 29 33 33 28 26 30 26 21 26 27 29 23 6 15 17 16 11 12 15 17 24 24 22 22 22 21 20 19 19
28 28 27 31 33 31 30 32 35 35 28 28 31 33 33 35 33 32 29 29 27 29 30 27 28 22 19 18 21 22 18 18 15 14 15 21 21 22 24 26 25 22 20 18 19
27 27 26 26 26 28 29 31 33 31 29 32 32 31 30 32 29 30 28 29 31 27 30 27 29 21 21 17 17 21 22 18 17 17 17 20 19 23 25 24 22 21 20 20 19
26 24 25 25 26 27 28 28 28 28 25 24 26 29 30 28 22 17 15 15 20 26 29 29 29 28 24 16 16 15 18 22 19 19 19 19 20 23 22 21 21 21 20 21 21
Wind_Direction
41 39 33 30 25 21 17 14 12 11 10 6 2 358 355 352 349 344 328 323 313 311 308 295 280 268 260 256 256 246 250 250 248 248 251 251 247 247 248 246 249 250 252 257 253
39 33 30 28 25 22 20 17 16 14 12 10 7 5 2 358 349 343 339 323 317 310 303 292 278 267 260 251 251 244 247 247 253 252 253 249 248 244 246 244 246 246 249 251 241
33 30 28 27 25 23 21 20 19 19 16 12 9 9 4 358 342 339 333 322 312 310 302 291 280 268 255 251 245 250 246 254 253 253 251 251 249 247 244 243 241 242 240 242 237
33 30 28 27 26 25 24 22 23 22 21 20 18 6 2 358 329 340 336 331 319 312 302 291 278 266 257 252 246 248 251 249 256 255 250 247 249 245 242 243 245 244 242 238 236
32 29 28 29 28 28 27 27 30 26 24 20 10 4 1 352 343 341 337 334 326 315 300 290 276 268 260 256 252 247 247 252 249 253 255 249 245 244 243 243 249 244 241 236 236
30 28 29 30 30 30 31 30 30 26 24 16 7 3 3 350 354 345 336 328 320 309 297 288 278 272 262 259 252 251 250 247 251 250 251 249 243 241 242 242 240 243 240 236 233
29 28 29 32 30 32 36 35 31 30 28 19 18 26 16 2 350 343 341 329 319 307 292 283 276 268 266 259 262 253 246 248 245 246 247 250 244 237 242 241 238 237 239 238 235
28 29 30 32 31 34 38 38 36 35 33 23 23 29 19 8 5 3 352 318 314 306 300 284 272 267 259 265 263 254 246 241 244 240 243 245 244 238 239 240 238 235 237 238 236
26 28 31 33 32 32 33 40 38 34 34 27 22 31 20 12 11 10 358 308 300 320 304 297 276 265 263 255 254 249 243 240 240 242 237 237 243 240 236 237 237 236 235 235 235
28 29 32 35 32 31 38 42 39 40 33 34 27 28 18 15 19 17 355 1 8 330 320 299 277 264 261 252 244 246 246 246 237 237 235 237 240 240 236 235 235 235 236 234 234
32 32 32 37 35 33 41 37 31 39 35 31 27 27 18 19 30 18 331 45 49 19 337 309 282 266 263 260 254 251 252 248 245 237 239 238 237 238 238 237 235 234 235 235 233
32 31 32 39 38 37 43 36 39 45 34 33 31 29 24 26 28 11 338 41 40 16 357 353 302 291 277 263 257 249 244 245 249 245 238 238 238 239 235 235 235 235 235 234 234
31 30 32 39 44 38 42 39 44 59 40 31 29 28 25 28 37 30 342 53 51 20 4 5 317 291 282 264 255 250 242 241 239 246 244 244 237 235 233 237 238 239 238 235 233
32 30 35 40 42 36 41 38 48 59 37 26 27 32 28 30 40 38 351 59 56 60 58 9 323 303 297 270 261 250 247 239 237 241 239 245 235 233 233 233 234 235 236 234 231
35 32 38 39 40 37 37 43 49 59 30 21 28 32 25 37 37 37 39 64 57 63 66 48 328 314 314 273 271 256 258 233 232 236 242 245 240 236 233 231 231 233 237 236 233
38 36 38 39 39 37 40 52 46 42 33 31 29 25 29 35 42 45 44 42 61 65 66 70 49 307 310 254 267 273 249 229 228 234 237 241 240 239 233 236 237 236 236 237 235
40 39 40 41 33 35 47 49 37 38 34 28 28 27 32 32 39 42 42 45 47 51 54 62 18 341 336 286 249 298 228 224 227 230 233 240 240 247 252 251 244 240 237 238 238
42 40 41 38 37 40 48 43 38 38 37 33 31 31 36 34 39 40 46 45 48 50 62 58 66 347 327 287 273 260 258 233 224 225 228 238 239 242 272 271 257 248 243 242 242
44 42 39 35 37 43 46 38 41 40 37 33 34 36 36 37 39 40 45 45 47 46 55 61 72 31 337 290 312 267 263 261 238 235 226 236 246 249 291 287 273 256 246 243 243
39 41 35 35 42 46 42 46 45 45 40 40 36 38 35 34 38 40 41 46 44 47 59 65 71 69 343 326 332 290 266 247 243 225 228 233 240 247 273 281 283 266 256 244 246
41 41 35 41 47 41 41 45 44 45 44 41 39 38 38 36 39 41 42 49 43 42 59 66 74 81 97 352 336 318 271 255 249 251 240 235 244 274 277 284 284 283 268 249 247
43 40 37 44 38 42 41 43 45 43 45 45 43 41 39 38 41 42 42 47 42 43 53 62 70 78 80 115 343 351 307 270 252 252 260 251 249 283 283 284 290 291 282 264 250
43 43 45 43 36 39 43 43 45 42 42 42 42 43 41 41 40 43 43 47 46 46 51 61 63 67 77 95 339 337 344 310 270 265 277 259 259 289 285 285 284 285 290 279 259
42 36 37 40 44 40 40 39 38 44 42 43 43 42 38 43 45 41 42 49 45 48 51 74 67 70 72 78 119 336 343 341 316 301 299 287 271 276 282 281 282 286 284 280 266
38 36 39 31 34 38 41 38 36 37 42 42 41 39 38 39 40 42 46 43 52 49 54 63 60 70 80 82 85 353 342 341 344 322 311 296 284 279 280 278 282 295 296 291 270
38 35 37 37 38 36 38 36 35 37 40 38 37 35 40 39 40 38 42 47 49 45 51 54 55 67 70 78 86 72 344 333 333 325 316 309 294 296 290 290 289 292 288 286 285
39 43 38 36 34 33 34 34 35 37 41 40 36 34 36 37 38 38 46 50 47 45 47 49 50 56 59 68 86 79 49 332 324 324 311 314 293 288 286 288 287 285 286 277 276